Погода в Буграх

Россия / Санкт-Петербург и Ленинградская область     60°04′11″N   30°23′59″E
темп.,
°C
ветер,
м/с
пор.,
м/с
влажн.,
%
обл.,
%
осадки,
мм/ч
давл.,
гПа
погр.,
м
4 марта, чт
чт400:000сз4119079 0.8 1001749
03:00−3сз4117973 0.9 1002580
06:00−4сз310870 0.0 1002456
09:00−4сз378810 0.0 1002459
12:00−3сз357890 0.0 1003694
15:00−2сз358095 0.1 1004668
18:00−3сз4778100 0.2 1004829
21:00−5зсз388595 0.2 1004408
5 марта, пт
пт500:00−6зсз378824 0.0 1005317
03:00−7зсз269321 0.0 1006272
06:00−8сз269232 0.0 1007320
09:00−7сз368763 0.0 1009425
12:00−5ссз2475100 0.1 1011670
15:00−4ссз2469100 0.1 1013925
18:00−5сз257598 0.1 1014362
21:00−7ссз248987 0.3 1016131
6 марта, сб
сб600:00−8зсз259144 0.0 1017172
03:00−9зсз249324 0.0 1017143
06:00−9з25940 0.0 1017154
09:00−8зюз38880 0.0 1016355
12:00−3юз586510 0.0 1013971
15:00−3юз7126655 0.0 1008971
18:00−3юз81691100 1.4 10021391
21:00−2зюз81894100 4.3 9961427
7 марта, вс
вс700:00−1зюз71696100 3.7 9921295
03:00−5сз4882100 5.8 992612
06:00−8зсз4119248 0.2 992987
09:00−8зюз4117157 0.3 9911197
12:00−6з4879100 0.4 9891130
15:00−5зсз4669100 1.3 9891122
18:00−7ссв3690100 0.6 991608
21:00−9с4128291 0.8 995698
8 марта, пн
пн800:00−10ссз4108470 0.0 999521
03:00−11ссз5108484 0.1 1002835
06:00−13ссз51085100 0.1 1004837
09:00−13ссз51085100 0.1 1007853
12:00−12ссз5982100 0.1 1010826
15:00−11с5879100 0.2 1013826
18:00−11с4984100 0.1 1015834
21:00−12ссз3993100 0.1 1018591